Regional Weather Roundup
Issued by NWS

Home | Current Version | Previous Version | Graphics & Text | Print | Product List | Glossary On
Versions: 1 2 3 4 5 6 7 8 9 10 11 12 13 14 15 16 17 18 19 20 21 22 23 24 25 26 27 28 29 30 31 32 33 34 35 36 37 38 39 40 41 42 43 44 45 46 47 48 49 50
000
ASUS45 KTFX 231710
RWRMT
MONTANA REGIONAL WEATHER ROUNDUP
NATIONAL WEATHER SERVICE GREAT FALLS MT
1100 AM MDT SAT MAY 23 2015

NOTE: "FAIR" INDICATES FEW OR NO CLOUDS BELOW 12000 FEET WITH NO
SIGNIFICANT WEATHER AND/OR OBSTRUCTIONS TO VISIBILITY.

MTZ001>007-043-231800-
WEST OF THE DIVIDE

CITY           SKY/WX    TMP DP  RH WIND       PRES   REMARKS
KALISPELL      SUNNY     72  36  26 N12       30.04S
MISSOULA       PTSUNNY   66  39  37 NW5       30.01F
BUTTE          PTSUNNY   55  39  54 N16G25    30.04S
MULLAN PASS    SUNNY     59  37  44 VRB3      30.10S
DEER LODGE       N/A     55  43  62 NE13      30.10R
EUREKA           N/A     70  37  30 W5        30.06F
HAMILTON         N/A     61  46  59 N8        30.00F
LIBBY            N/A     68  37  32 NW3       30.04F
RONAN            N/A     66  45  46 N7        30.06S
$$

MTZ008-052>055-231800-
SOUTHWEST MONTANA

CITY           SKY/WX    TMP DP  RH WIND       PRES   REMARKS
BOZEMAN        LGT RAIN  51  46  83 NW3       30.02S
DILLON         PTSUNNY   60  42  51 NE23G29   29.99F
W YELLOWSTONE  CLOUDY    52  37  58 N7G16     29.99S
THREE FORKS      N/A     57  57 100 N7        30.01S
TWIN BRIDGES     N/A     62  40  44 N20       29.98S
$$

MTZ009-010-012-014-046-048-049-054-231800-
EAST SLOPES AND CENTRAL MONTANA

CITY           SKY/WX    TMP DP  RH WIND       PRES   REMARKS
CUT BANK       PTSUNNY   66  44  45 E14G21    30.10S
GREAT FALLS    LGT RAIN  50  49  96 NW6       30.09R FOG
MALMSTROM AFB  LGT RAIN  51  50  97 NW6       30.09R
HELENA         CLOUDY    56  48  74 SW9       30.04S
CONRAD           N/A     56  52  86 E1        30.13R
$$

MTZ011-013-016-021-045-047-050-051-231800-
NORTH CENTRAL MONTANA

CITY           SKY/WX    TMP DP  RH WIND       PRES   REMARKS
HAVRE          MOSUNNY   66  44  45 E18G24    30.07R
LEWISTOWN      LGT RAIN  52  49  89 W5        30.07R
CHINOOK          N/A     66  45  45 E8        30.06F
FORT BENTON      N/A     61  52  72 NW6       30.08R
$$

MTZ017>020-022>027-061-062-231800-
NORTHEAST MONTANA

CITY           SKY/WX    TMP DP  RH WIND       PRES   REMARKS
GLASGOW        PTSUNNY   67  39  35 E17G25    30.07S
JORDAN           N/A     63  41  44 E15G23    30.04S
SIDNEY         SUNNY     66  41  39 E10G21    30.10F
WOLF POINT     PTSUNNY   69  42  37 E21G28    30.09S
MALTA            N/A     65  41  41 E17       30.04S
PLENTYWOOD       N/A     70  36  28 SE13      30.12S
POPLAR           N/A     66  39  37 E20       30.09F
$$

MTZ028>42-056>058-231800-
SOUTHCENTRAL AND SOUTHEAST MONTANA

CITY           SKY/WX    TMP DP  RH WIND       PRES   REMARKS
BAKER          CLOUDY    55  43  63 SE21      30.08R
BILLINGS       PTSUNNY   63  43  48 E13       30.00S
LIVINGSTON     CLOUDY    51  47  86 E20       30.02R
MILES CITY     MOSUNNY   60  43  53 E8        30.03R
BIG TIMBER       N/A     48  48 100 N6        30.05R
FORSYTH          N/A     59  45  58 E9        30.02S
LAUREL           N/A     59  44  57 NE6       29.99S
ROUNDUP          N/A     60  45  57 N10       29.94S
$$

REGIONAL REPORTS...DAKOTAS

CITY           SKY/WX    TMP DP  RH WIND       PRES   REMARKS
WILLISTON      SUNNY     70  40  33 SE12G20   30.12S
MINOT          SUNNY     70  36  28 VRB7      30.12F
DICKINSON      MOSUNNY   61  45  55 SE13G24   30.09S
BEACH          FAIR      59  45  58 SE17G24   30.10S
CROSBY         FAIR      72  36  26 SE9       30.13S
WATFORD CITY   FAIR      66  39  37 SE16G22   30.10F
BISMARCK       SUNNY     62  46  55 VRB6      30.15F
GRAND FORKS    MOSUNNY   72  46  39 S12       30.13S
FARGO          SUNNY     70  46  42 S12       30.18F
BUFFALO SD       N/A     53  44  71 E13       30.02R
RAPID CITY     CLOUDY    52  45  77 SE9       30.07S
$$

REGIONAL REPORTS...WYOMING/IDAHO/WASHINGTON

CITY           SKY/WX    TMP DP  RH WIND       PRES   REMARKS
GILLETTE       CLOUDY    51  44  77 SE9       30.01S
SHERIDAN       CLOUDY    50  46  86 NW7       30.00S
BUFFALO WY     CLOUDY    50  46  86 E5        30.01S
CODY           CLOUDY    48  46  93 N15       29.99R
YELLOWSTONE LA   N/A     51  36  56 VRB6      30.02F
IDAHO FALLS    CLOUDY    57  47  69 VRB5      29.92F
SALMON         PTSUNNY   61  45  55 CALM      29.95F
BOISE          MOSUNNY   64  52  64 W12       29.90S
SPOKANE        PTSUNNY   67  50  54 N3        30.01S
$$

REGIONAL REPORTS...ALBERTA

CITY           SKY/WX    TMP DP  RH WIND       PRES   REMARKS
EDMONTON       SUNNY     75  34  22 E2        30.12R
CALGARY        MOSUNNY   70  30  23 SW7       30.17R
LETHBRIDGE     MOSUNNY   66  45  45 N3        30.13S
MEDICINE HAT   MOSUNNY   73  30  20 E8G26     30.09F
$$

REGIONAL REPORTS...SASKATCHEWAN

CITY           SKY/WX    TMP DP  RH WIND       PRES   REMARKS
SWIFT CURRENT  SUNNY     72  34  25 SE13G18   30.11S
REGINA         MOSUNNY   73  39  29 SW6       30.12F
SASKATOON      PTSUNNY   73  36  25 VRB5      30.12S
$$


USA.gov is the U.S. government's official web portal to all federal, state and local government web resources and services.